TimeEDT,TemperatureF,Dew PointF,Humidity,Sea Level PressureIn,VisibilityMPH,Wind Direction,Wind SpeedMPH,Gust SpeedMPH,PrecipitationIn,Events,Conditions,WindDirDegrees,DateUTC
12:53 AM,46.9,30.0,52,30.27,10.0,ESE,9.2,17.3,N/A,,Clear,120,2013-04-23 04:53:00
1:53 AM,46.9,30.9,54,30.26,10.0,East,9.2,-,N/A,,Clear,100,2013-04-23 05:53:00
2:53 AM,45.0,30.9,58,30.26,10.0,Variable,6.9,-,N/A,,Clear,0,2013-04-23 06:53:00
3:53 AM,44.1,30.9,60,30.25,10.0,ESE,5.8,-,N/A,,Clear,120,2013-04-23 07:53:00
4:53 AM,44.1,30.9,60,30.25,10.0,East,5.8,-,N/A,,Clear,100,2013-04-23 08:53:00
6:53 AM,43.0,32.0,65,30.25,10.0,ESE,5.8,-,N/A,,Clear,110,2013-04-23 10:53:00
7:53 AM,45.0,32.0,60,30.24,10.0,ESE,4.6,-,N/A,,Clear,110,2013-04-23 11:53:00
8:53 AM,51.1,33.1,50,30.21,10.0,East,6.9,-,N/A,,Clear,100,2013-04-23 12:53:00
9:53 AM,55.0,34.0,45,30.20,10.0,SSE,5.8,-,N/A,,Clear,150,2013-04-23 13:53:00
10:53 AM,59.0,34.0,39,30.21,10.0,Variable,4.6,-,N/A,,Clear,0,2013-04-23 14:53:00
11:53 AM,63.0,32.0,31,30.20,10.0,Variable,5.8,-,N/A,,Clear,0,2013-04-23 15:53:00
12:53 PM,64.9,30.0,27,30.16,10.0,SSE,6.9,-,N/A,,Clear,150,2013-04-23 16:53:00
1:53 PM,68.0,28.9,23,30.14,10.0,Calm,Calm,-,N/A,,Clear,0,2013-04-23 17:53:00
3:53 PM,71.1,27.0,19,30.07,10.0,WNW,9.2,-,N/A,,Clear,290,2013-04-23 19:53:00
4:53 PM,71.1,28.0,20,30.05,10.0,South,5.8,-,N/A,,Clear,190,2013-04-23 20:53:00
5:53 PM,71.1,28.9,21,30.04,10.0,SSW,6.9,-,N/A,,Clear,200,2013-04-23 21:53:00
6:53 PM,70.0,30.0,23,30.05,10.0,SSW,4.6,-,N/A,,Clear,200,2013-04-23 22:53:00
7:53 PM,64.0,35.1,34,30.03,10.0,SE,4.6,-,N/A,,Clear,140,2013-04-23 23:53:00
8:53 PM,64.9,30.9,28,30.02,10.0,SE,4.6,-,N/A,,Clear,140,2013-04-24 00:53:00
9:53 PM,63.0,36.0,37,30.01,10.0,SE,11.5,-,N/A,,Clear,130,2013-04-24 01:53:00
10:53 PM,62.1,37.9,41,29.99,10.0,SE,8.1,-,N/A,,Clear,130,2013-04-24 02:53:00
11:53 PM,60.1,39.9,47,29.98,10.0,Calm,Calm,-,N/A,,Partly Cloudy,0,2013-04-24 03:53:00